Location: Dortmund
(51.5019°N, 7.6520°E)
Time: 00:33:47
(UTC+02:00)

ISS - Visible Passes

Search period start: 25 July 2017 00:00
Search period end: 04 August 2017 00:00
Orbit: 400 x 408 km, 51.6° (Epoch: 25 July)

Date Brightness Start Highest point End Pass type
(mag) Time Alt. Az. Time Alt. Az. Time Alt. Az.
25 Jul -4.0 00:07:14 10° WSW 00:10:29 74° SSE 00:13:45 10° E visible
25 Jul -3.9 01:43:42 10° W 01:46:58 89° N 01:50:15 10° E visible
25 Jul -3.5 03:20:13 10° W 03:23:19 40° SSW 03:26:24 10° SE visible
25 Jul -3.8 23:14:59 10° WSW 23:18:12 57° SSE 23:21:24 10° E visible
26 Jul -3.9 00:51:21 10° W 00:54:38 85° N 00:56:43 20° E visible
26 Jul -2.2 02:27:51 10° W 02:29:15 23° W 02:29:15 23° W visible
26 Jul -3.4 22:22:50 10° SW 22:25:55 40° SSE 22:29:00 10° E visible
26 Jul -3.9 23:59:00 10° W 00:02:16 89° N 00:05:18 12° E visible
27 Jul -3.2 01:35:29 10° W 01:37:54 45° W 01:37:54 45° W visible
27 Jul -4.0 23:06:39 10° WSW 23:09:54 80° S 23:13:10 10° E visible
28 Jul -4.0 00:43:08 10° W 00:46:24 88° S 00:46:54 61° ESE visible
28 Jul -3.8 22:14:20 10° WSW 22:17:33 63° SSE 22:20:48 10° E visible
28 Jul -3.9 23:50:45 10° W 23:54:01 86° N 23:56:01 22° E visible
29 Jul -2.0 01:27:15 10° W 01:28:38 22° W 01:28:38 22° W visible
29 Jul -3.9 22:58:21 10° W 23:01:37 87° N 23:04:53 10° E visible
30 Jul -3.8 00:34:51 10° W 00:37:49 63° SW 00:37:49 63° SW visible
30 Jul -3.9 22:05:57 10° WSW 22:09:13 84° S 22:12:30 10° E visible
30 Jul -4.0 23:42:27 10° W 23:45:43 84° S 23:47:01 33° ESE visible
31 Jul -1.4 01:19:02 10° W 01:19:38 14° W 01:19:38 14° W visible
31 Jul -3.9 22:50:01 10° W 22:53:18 87° N 22:56:15 12° E visible
01 Aug -2.9 00:26:32 10° W 00:28:51 36° WSW 00:28:51 36° WSW visible
01 Aug -3.8 21:57:35 10° W 22:00:52 86° N 22:04:07 10° E visible
01 Aug -3.9 23:34:05 10° W 23:37:19 62° SSW 23:38:06 44° SE visible
02 Aug -3.9 22:41:38 10° W 22:44:54 79° SSW 22:47:21 16° ESE visible
03 Aug -2.1 00:18:17 10° W 00:19:58 22° WSW 00:19:58 22° WSW visible
03 Aug -3.8 21:49:11 10° W 21:52:28 89° NNE 21:55:43 10° E visible
03 Aug -3.3 23:25:42 10° W 23:28:47 40° SSW 23:29:14 37° S visible
